Retour au catalogue

NEONSAT-1A

ActifScienceSSO
NORAD 67614·PAYLOAD·🇰🇷 South Korea

Lancé Jan 30, 2026 depuis Rocket Lab Launch Complex 1

Loading…

Prochains Passages (prochaines 24 heures)

TLE

FraisSource: Space-Track

Époque: Sep 14, 2026, 13:52 UTC

1 67614U 26019A   26257.57838701  .00001797  00000-0  11796-3 0  9994
2 67614  97.4358  14.8679 0011584 242.2419 117.7636 15.08830382 34297

Suivez NEONSAT-1A en temps réel avec AllMySat

Download on the App Store